TimeCDT,TemperatureF,Dew PointF,Humidity,Sea Level PressureIn,VisibilityMPH,Wind Direction,Wind SpeedMPH,Gust SpeedMPH,PrecipitationIn,Events,Conditions,WindDirDegrees,DateUTC
12:15 AM,59.0,-9999,N/A,29.87,10.0,South,9.2,-,N/A,,Clear,190,2013-09-14 05:15:00
12:35 AM,59.0,-9999,N/A,29.86,10.0,South,10.4,-,N/A,,Clear,180,2013-09-14 05:35:00
12:55 AM,59.0,-9999,N/A,29.86,10.0,South,11.5,-,N/A,,Clear,190,2013-09-14 05:55:00
1:15 AM,59.0,-9999,N/A,29.86,10.0,South,10.4,-,N/A,,Clear,180,2013-09-14 06:15:00
1:35 AM,59.0,-9999,N/A,29.86,10.0,South,9.2,-,N/A,,Clear,180,2013-09-14 06:35:00
1:55 AM,59.0,-9999,N/A,29.85,10.0,South,8.1,-,N/A,,Clear,170,2013-09-14 06:55:00
2:15 AM,57.2,-9999,N/A,29.85,10.0,South,6.9,-,N/A,,Clear,180,2013-09-14 07:15:00
2:35 AM,57.2,-9999,N/A,29.84,10.0,South,5.8,-,N/A,,Clear,170,2013-09-14 07:35:00
2:55 AM,55.4,-9999,N/A,29.83,10.0,SSE,5.8,-,N/A,,Clear,160,2013-09-14 07:55:00
3:15 AM,55.4,-9999,N/A,29.83,10.0,South,6.9,-,N/A,,Clear,170,2013-09-14 08:15:00
3:35 AM,55.4,-9999,N/A,29.83,10.0,South,4.6,-,N/A,,Clear,170,2013-09-14 08:35:00
3:55 AM,55.4,-9999,N/A,29.82,10.0,South,4.6,-,N/A,,Clear,180,2013-09-14 08:55:00
4:15 AM,55.4,-9999,N/A,29.82,10.0,SSW,3.5,-,N/A,,Clear,200,2013-09-14 09:15:00
4:35 AM,55.4,-9999,N/A,29.82,10.0,Calm,Calm,-,N/A,,Clear,0,2013-09-14 09:35:00
4:55 AM,53.6,-9999,N/A,29.82,10.0,Calm,Calm,-,N/A,,Clear,0,2013-09-14 09:55:00
5:15 AM,55.4,-9999,N/A,29.81,10.0,Calm,Calm,-,N/A,,Clear,0,2013-09-14 10:15:00
5:35 AM,55.4,-9999,N/A,29.81,10.0,SSW,3.5,-,N/A,,Clear,210,2013-09-14 10:35:00
5:55 AM,55.4,-9999,N/A,29.81,10.0,Calm,Calm,-,N/A,,Clear,0,2013-09-14 10:55:00
6:15 AM,55.4,-9999,N/A,29.81,10.0,Calm,Calm,-,N/A,,Clear,0,2013-09-14 11:15:00
6:35 AM,55.4,-9999,N/A,29.81,10.0,Calm,Calm,-,N/A,,Clear,0,2013-09-14 11:35:00
6:55 AM,53.6,-9999,N/A,29.81,10.0,SSE,4.6,-,N/A,,Clear,150,2013-09-14 11:55:00
7:15 AM,53.6,-9999,N/A,29.81,10.0,SE,4.6,-,N/A,,Clear,140,2013-09-14 12:15:00
7:35 AM,53.6,-9999,N/A,29.81,10.0,SSE,4.6,-,N/A,,Clear,150,2013-09-14 12:35:00
7:55 AM,55.4,-9999,N/A,29.81,10.0,Calm,Calm,-,N/A,,Clear,0,2013-09-14 12:55:00
8:15 AM,55.4,-9999,N/A,29.81,10.0,SSE,4.6,-,N/A,,Partly Cloudy,160,2013-09-14 13:15:00
8:35 AM,57.2,-9999,N/A,29.80,10.0,SSE,4.6,-,N/A,,Mostly Cloudy,150,2013-09-14 13:35:00
8:55 AM,59.0,-9999,N/A,29.80,10.0,South,5.8,-,N/A,,Mostly Cloudy,180,2013-09-14 13:55:00
9:15 AM,62.6,-9999,N/A,29.80,10.0,South,8.1,-,N/A,,Partly Cloudy,180,2013-09-14 14:15:00
9:35 AM,64.4,-9999,N/A,29.80,10.0,South,6.9,-,N/A,,Clear,180,2013-09-14 14:35:00
9:55 AM,64.4,-9999,N/A,29.81,10.0,SSW,3.5,-,N/A,,Partly Cloudy,210,2013-09-14 14:55:00
10:15 AM,64.4,-9999,N/A,29.82,10.0,Calm,Calm,-,N/A,,Mostly Cloudy,0,2013-09-14 15:15:00
10:35 AM,66.2,-9999,N/A,29.82,10.0,Calm,Calm,-,N/A,,Partly Cloudy,0,2013-09-14 15:35:00
10:55 AM,66.2,-9999,N/A,29.82,10.0,Calm,Calm,-,N/A,,Clear,0,2013-09-14 15:55:00
11:15 AM,66.2,-9999,N/A,29.82,10.0,NW,3.5,-,N/A,,Clear,320,2013-09-14 16:15:00
11:35 AM,68.0,-9999,N/A,29.82,10.0,NW,3.5,-,N/A,,Clear,310,2013-09-14 16:35:00
11:55 AM,68.0,-9999,N/A,29.82,10.0,Calm,Calm,-,N/A,,Clear,0,2013-09-14 16:55:00
12:15 PM,69.8,-9999,N/A,29.81,10.0,NNW,5.8,-,N/A,,Clear,340,2013-09-14 17:15:00
12:35 PM,68.0,-9999,N/A,29.81,10.0,North,5.8,-,N/A,,Clear,360,2013-09-14 17:35:00
12:55 PM,68.0,-9999,N/A,29.81,10.0,NE,9.2,-,N/A,,Clear,40,2013-09-14 17:55:00
1:15 PM,71.6,-9999,N/A,29.81,8.0,NE,12.7,18.4,N/A,,Clear,40,2013-09-14 18:15:00
1:35 PM,71.6,-9999,N/A,29.82,9.0,NE,9.2,-,N/A,,Clear,50,2013-09-14 18:35:00
1:55 PM,71.6,-9999,N/A,29.82,10.0,NE,15.0,20.7,N/A,,Mostly Cloudy,50,2013-09-14 18:55:00
2:15 PM,68.0,-9999,N/A,29.83,10.0,NE,18.4,27.6,N/A,,Overcast,40,2013-09-14 19:15:00
2:35 PM,69.8,-9999,N/A,29.84,10.0,NE,13.8,24.2,N/A,,Overcast,40,2013-09-14 19:35:00
2:55 PM,69.8,-9999,N/A,29.85,10.0,NE,13.8,21.9,N/A,,Overcast,50,2013-09-14 19:55:00
3:15 PM,71.6,-9999,N/A,29.86,10.0,NE,12.7,20.7,N/A,,Overcast,50,2013-09-14 20:15:00
3:35 PM,66.2,-9999,N/A,29.86,10.0,NNE,25.3,33.4,N/A,,Overcast,30,2013-09-14 20:35:00
3:55 PM,64.4,-9999,N/A,29.87,10.0,NE,17.3,31.1,N/A,,Overcast,40,2013-09-14 20:55:00
4:15 PM,62.6,-9999,N/A,29.89,10.0,NNE,20.7,26.5,N/A,,Overcast,30,2013-09-14 21:15:00
4:35 PM,59.0,-9999,N/A,29.90,10.0,NE,17.3,29.9,N/A,,Overcast,40,2013-09-14 21:35:00
4:55 PM,59.0,-9999,N/A,29.90,10.0,NE,16.1,21.9,N/A,,Mostly Cloudy,40,2013-09-14 21:55:00
5:15 PM,59.0,-9999,N/A,29.91,10.0,NNE,12.7,16.1,N/A,,Scattered Clouds,30,2013-09-14 22:15:00
5:35 PM,60.8,-9999,N/A,29.92,10.0,NNE,12.7,18.4,N/A,,Partly Cloudy,30,2013-09-14 22:35:00
5:55 PM,62.6,-9999,N/A,29.92,10.0,NE,11.5,21.9,N/A,,Mostly Cloudy,40,2013-09-14 22:55:00
6:15 PM,62.6,-9999,N/A,29.94,10.0,NNE,13.8,20.7,N/A,,Mostly Cloudy,30,2013-09-14 23:15:00
6:35 PM,62.6,-9999,N/A,29.94,10.0,NNE,12.7,-,N/A,,Scattered Clouds,30,2013-09-14 23:35:00
6:55 PM,62.6,-9999,N/A,29.95,10.0,NNE,6.9,-,N/A,,Scattered Clouds,30,2013-09-14 23:55:00
7:15 PM,62.6,-9999,N/A,29.95,10.0,NNE,8.1,-,N/A,,Partly Cloudy,30,2013-09-15 00:15:00
7:35 PM,59.0,-9999,N/A,29.96,10.0,North,8.1,-,N/A,,Scattered Clouds,10,2013-09-15 00:35:00
7:55 PM,60.8,-9999,N/A,29.97,10.0,NNE,15.0,23.0,N/A,,Overcast,30,2013-09-15 00:55:00
8:15 PM,59.0,-9999,N/A,29.98,10.0,NNE,18.4,26.5,N/A,,Scattered Clouds,30,2013-09-15 01:15:00
8:35 PM,59.0,-9999,N/A,30.00,10.0,NNE,19.6,27.6,N/A,,Scattered Clouds,30,2013-09-15 01:35:00
8:55 PM,57.2,-9999,N/A,30.01,10.0,NNE,20.7,29.9,N/A,,Partly Cloudy,30,2013-09-15 01:55:00
9:15 PM,55.4,-9999,N/A,30.03,10.0,NNE,17.3,23.0,N/A,,Scattered Clouds,30,2013-09-15 02:15:00
9:35 PM,55.4,-9999,N/A,30.04,10.0,NNE,16.1,24.2,N/A,,Scattered Clouds,30,2013-09-15 02:35:00
9:55 PM,55.4,-9999,N/A,30.06,10.0,NNE,17.3,25.3,N/A,,Overcast,20,2013-09-15 02:55:00
10:15 PM,53.6,-9999,N/A,30.07,10.0,NNE,20.7,25.3,N/A,,Overcast,20,2013-09-15 03:15:00
10:35 PM,53.6,-9999,N/A,30.07,10.0,NNE,16.1,26.5,N/A,,Overcast,30,2013-09-15 03:35:00
10:55 PM,51.8,-9999,N/A,30.08,10.0,NNE,17.3,20.7,N/A,,Overcast,20,2013-09-15 03:55:00
11:15 PM,50.0,-9999,N/A,30.09,10.0,NNE,13.8,20.7,N/A,,Scattered Clouds,20,2013-09-15 04:15:00
11:35 PM,50.0,-9999,N/A,30.10,10.0,NNE,13.8,19.6,N/A,,Partly Cloudy,20,2013-09-15 04:35:00
11:55 PM,48.2,-9999,N/A,30.10,10.0,NNE,15.0,19.6,N/A,,Clear,20,2013-09-15 04:55:00